CAPE
909 957 1132 1461 1404 1574 1517 1653 1533 1261 747 572 437 657 796 1162 954 879 892 1681 1903 1844 2228 2277 2299 2206 2193 2285 2494 2429 2581 2406 2171 2379 2071 2245 1794 1361 1148 976 900 847 833
1039 788 901 946 1071 1351 1822 1210 1347 1050 787 601 192 103 254 228 503 730 789 770 1535 1827 1943 2008 2235 2085 2173 2256 2404 2339 2567 2545 2316 2393 2041 2102 1866 1351 1149 1040 850 761 694
1432 1205 1627 1175 880 1020 1397 1426 980 639 175 200 189 117 104 239 418 150 313 537 744 1508 1880 2124 2357 2338 2264 2276 2345 2336 2820 2645 2267 2268 2163 1763 1999 1480 1246 1108 897 804 608
1587 1384 1212 1219 1065 992 1082 1114 1547 1040 142 104 26 112 179 173 467 588 574 279 521 618 1555 1892 2382 2237 2256 2272 2175 2031 2294 2623 2528 2537 2224 1990 1769 1587 1350 1198 1030 919 682
1540 1403 1133 1153 1444 1084 1161 1073 429 379 251 500 137 95 113 97 503 749 730 377 244 609 1013 1822 2361 2432 1883 2059 2125 2054 2294 2534 2528 2305 2494 2448 2109 1811 1490 1326 1105 1047 719
1114 1353 1188 1401 1434 1272 1244 1038 1440 1028 953 352 312 319 113 121 591 277 676 187 92 255 592 942 1088 1043 1985 2057 2308 2160 2013 2167 2078 2246 2700 2594 2617 2307 2081 1943 1563 1079 849
1448 1676 1170 1455 1530 1377 1380 1361 1232 1333 146 162 402 569 411 507 305 739 101 211 166 210 441 650 546 503 651 2052 2235 2047 1953 2000 2110 2262 2521 2615 2462 2513 2258 2062 1924 1509 928
1477 1412 1260 1469 1613 1231 1472 1331 1111 527 717 126 653 897 896 169 236 643 80 106 106 165 134 440 363 320 282 705 710 1946 2351 2447 2169 2080 2159 2564 2527 2103 2326 2089 1923 1934 1729
1536 1591 1570 1563 1593 1468 1137 1526 1329 1171 1116 384 396 1258 549 256 739 573 247 242 89 71 119 277 431 264 323 297 636 1245 2109 2244 2334 2156 2206 2492 2501 2354 2212 1974 1631 2015 2015
1489 1560 1598 1572 1625 1268 1181 1271 1276 1320 1240 689 602 877 505 335 842 755 767 576 342 82 99 319 423 455 285 333 395 605 1292 1507 2046 2206 2351 2452 2287 2255 1939 2069 1839 1530 1579
1574 1523 1564 1565 1540 1258 1083 1202 1161 1264 1046 947 662 636 574 292 252 536 703 591 341 272 421 598 409 463 433 275 232 245 752 976 1323 1879 2135 2415 2075 1952 1656 1697 1802 1548 1231
1439 1615 1518 1513 1475 1341 1229 1173 1210 1233 1388 872 949 1376 893 741 690 694 444 578 182 89 194 295 507 442 536 450 337 295 673 624 665 989 1522 1806 1992 2011 1893 1448 1498 1465 1423
1231 1432 1716 1549 1355 1375 1362 1353 1365 1207 1471 1059 647 987 1046 177 1122 1233 915 790 234 239 169 91 218 456 412 484 410 354 356 310 374 494 932 1125 1479 1923 2127 2144 1940 1644 1266
1099 1323 1598 1623 1700 1629 1466 1398 1377 1589 567 810 545 987 1339 888 1411 398 566 785 154 189 953 226 105 359 578 494 422 381 257 69 90 184 401 647 915 1282 1530 1779 1741 1726 1666
1183 1616 1771 1737 1789 1720 1665 1661 799 333 261 254 592 1631 1156 1430 1279 1329 831 724 453 544 383 326 739 503 463 680 427 267 236 103 42 34 91 281 455 715 1007 1120 1290 1250 1128
1510 1729 1826 1887 1874 1695 1300 1129 1118 661 482 611 1199 945 537 339 459 676 504 447 386 211 369 524 535 614 469 659 590 364 273 86 39 0 0 40 177 279 439 644 747 842 910
1819 2120 1937 1863 1685 1218 1341 1362 1218 531 481 532 849 892 834 743 806 774 871 762 476 739 399 95 190 720 719 997 819 579 418 262 189 9 0 0 14 119 203 323 500 627 712
1220 1508 1606 1756 1940 1299 1436 985 858 682 557 424 547 722 565 1182 845 840 866 824 945 589 406 112 256 439 384 145 261 767 719 462 430 136 71 0 0 0 29 78 183 301 344
2077 2052 2061 2040 2082 1933 1561 1176 918 857 721 614 625 528 501 848 981 921 828 778 504 642 582 612 650 629 636 942 937 606 854 800 648 224 133 58 0 0 0 0 0 5 22
2541 2471 2273 2292 2193 2027 1758 1424 1193 1115 849 885 748 709 894 880 1006 1063 936 764 595 386 465 385 455 692 649 950 1127 680 735 750 725 641 198 102 60 0 0 0 0 0 6
2843 2702 2664 2474 2304 2180 1975 1509 1328 1154 980 969 1254 1138 1315 1429 1182 1060 1117 706 492 494 115 52 34 316 237 630 669 200 184 707 466 1584 876 584 284 206 131 0 0 0 0
3010 2821 2533 2445 2332 2026 1604 1420 1527 1424 1277 1075 1003 1464 1631 1017 799 518 150 29 59 279 262 243 401 194 273 534 550 427 216 377 753 867 1562 1119 798 613 490 478 132 53 38
2885 2734 2530 2479 2380 2190 1557 1420 1259 1781 1800 1747 1738 1702 1625 1219 735 863 221 32 99 89 130 400 391 341 201 111 83 79 292 422 403 484 498 608 1582 1203 826 954 336 224 178
2788 2678 2509 2382 2301 2201 1566 1346 1231 1607 1965 1946 1937 2014 1952 1687 1267 746 572 480 513 360 244 200 220 408 156 93 256 382 74 55 262 467 383 160 897 804 796 920 276 187 194
2629 2529 2446 2445 2321 2215 1421 1253 1246 1703 1988 2136 2143 2086 2038 1946 1193 763 526 700 636 569 70 27 64 80 81 86 156 145 123 132 141 118 94 142 427 396 500 649 347 108 123
2668 2430 2429 2367 2024 2225 1643 1181 1123 1735 2039 2024 2160 2186 1391 1249 1132 955 599 944 935 648 481 285 207 31 16 21 0 76 62 74 76 108 166 145 182 108 101 80 61 69 86
CIN
-5 -1 -0 -0 -0 -0 -0 -0 -0 -0 -18 -26 -28 -19 -15 -7 -6 -5 -1 -8 -4 -1 -0 -0 -0 -0 -0 -1 -0 -0 -1 -0 -0 -0 -0 -0 -0 -0 -1 -4 -10 -13 -13
-2 -6 -1 -0 -0 -0 -0 -0 -4 -12 -15 -14 -36 -57 -40 -43 -21 -8 -0 -0 -6 -2 -0 -0 -0 -0 -0 -1 -0 -0 -0 -0 -0 -0 -0 -0 -0 -0 -0 -2 -9 -18 -24
-1 -2 -3 -0 -1 -4 -0 -0 -8 -17 -26 -6 -4 -6 -11 -12 -13 -48 -9 -0 -0 -5 -2 -0 -0 -0 -0 -0 -1 -0 -0 -0 -1 -0 -0 -0 -0 -0 -0 -1 -7 -17 -36
-4 -6 -3 -0 -0 -5 -5 -3 -3 -1 -44 -3 -0 -0 -1 -6 -2 -4 -3 -13 -4 -0 -1 -1 -0 -0 -0 -0 -3 -0 -0 -0 -0 -0 -0 -0 -0 -0 -0 -0 -6 -11 -32
-18 -13 -13 -8 -9 -6 -7 -8 -42 -20 -11 -0 -4 -0 -0 -3 -0 -0 -0 -11 -16 -4 -0 -3 -0 -0 -0 -0 -0 -1 -1 -0 -0 -0 -0 -0 -0 -0 -0 -0 -4 -7 -34
-44 -32 -23 -18 -12 -6 -4 -20 -9 -4 -1 -8 -0 -4 -3 -8 -0 -6 -1 -19 -40 -25 -1 -0 -0 -0 -3 -1 -0 -0 -0 -1 -2 -0 -0 -0 -0 -0 -0 -0 -0 -7 -25
-46 -38 -36 -30 -19 -13 -8 -5 -3 -0 -48 -19 -0 -0 -4 -0 -0 -0 -17 -1 -4 -0 -0 -0 -0 -0 -0 -1 -1 -3 -0 -0 -0 -0 -0 -0 -0 -0 -0 -0 -0 -0 -14
-72 -60 -83 -33 -28 -17 -15 -8 -8 -23 -5 -31 -0 -0 -0 -20 -21 -0 -5 -6 -7 -13 -17 -0 -2 -5 -0 -7 -2 -4 -0 -0 -0 -0 -0 -0 -0 -0 -0 -0 -0 -0 -0
-57 -62 -62 -49 -33 -31 -17 -8 -1 -0 -0 -19 -10 -0 -0 -16 -0 -0 -5 -0 -1 -11 -11 -0 -0 -9 -0 -0 -1 -0 -2 -2 -0 -0 -0 -0 -0 -0 -0 -0 -0 -0 -0
-67 -76 -72 -68 -56 -35 -25 -16 -3 -0 -0 -1 -0 -0 -6 -22 -0 -0 -0 -0 -0 -1 -4 -0 -0 -0 -0 -2 -5 -3 -10 -11 -1 -0 -0 -0 -0 -0 -0 -0 -0 -1 -0
-71 -68 -72 -71 -69 -53 -45 -25 -6 -1 -0 -0 -0 -5 -2 -4 -2 -0 -0 -0 -0 -0 -0 -0 -0 -0 -0 -3 -13 -32 -34 -22 -10 -1 -0 -0 -0 -0 -0 -0 -0 -0 -0
-33 -59 -63 -63 -69 -55 -50 -40 -22 -10 -5 -3 -0 -0 -7 -1 -0 -0 -0 -0 -10 -57 -2 -9 -0 -0 -0 -0 -4 -22 -33 -45 -35 -16 -8 -3 -0 -0 -0 -0 -0 -0 -0
-29 -36 -47 -57 -67 -72 -53 -38 -27 -12 -2 -2 -5 -0 -3 -41 -0 -0 -0 -0 -2 -2 -5 -10 -17 -0 -2 -0 -0 -17 -42 -77 -59 -37 -15 -17 -7 -1 -0 -0 -0 -0 -0
-35 -41 -53 -49 -51 -49 -52 -46 -22 -7 -30 -4 -4 -2 -0 -7 -0 -12 -1 -0 -0 -1 -0 -19 -52 -21 -5 -5 -6 -22 -14 -149 -144 -95 -37 -24 -19 -7 -2 -2 -1 -0 -0
-39 -41 -38 -38 -29 -37 -34 -37 -39 -114 -80 -1 -0 -0 -0 -0 -0 -0 -0 -0 -0 -0 -1 -9 -0 -15 -16 -4 -17 -19 -16 -67 -136 -189 -179 -97 -71 -32 -5 -4 -2 -2 -3
-74 -44 -32 -29 -25 -4 -11 -18 -7 -47 -48 -7 -0 -0 -0 -0 -0 -0 -0 -0 -0 -1 -0 -0 -12 -15 -18 -0 -3 -15 -6 -87 -137 -0 -0 -235 -162 -127 -80 -38 -24 -18 -10
-88 -44 -37 -28 -15 -20 -16 -3 -3 -28 -27 -14 -0 -0 -0 -0 -0 -0 -0 -0 -0 -0 -3 -66 -46 -8 -3 -0 -0 -4 -5 -8 -44 -55 -0 -0 -126 -173 -140 -100 -60 -42 -29
-152 -106 -71 -29 -5 -35 -19 -49 -45 -44 -40 -45 -9 -0 -0 -0 -0 -0 -0 -0 -0 -0 -0 -29 -18 -6 -9 -51 -45 -0 -0 -0 -2 -65 -130 -0 -0 -0 -196 -170 -128 -93 -78
-41 -38 -18 -10 -2 -1 -2 -6 -19 -22 -19 -42 -11 -0 -0 -0 -0 -0 -0 -0 -0 -0 -0 -0 -0 -1 -0 -0 -0 -0 -0 -0 -0 -15 -60 -103 -0 -0 -0 -0 -0 -116 -195
-7 -5 -14 -3 -1 -7 -4 -3 -1 -0 -7 -3 -5 -6 -0 -0 -0 -0 -0 -0 -0 -0 -0 -0 -0 -0 -0 -0 -0 -0 -0 -0 -0 -0 -22 -70 -116 -0 -0 -0 -0 -0 -62
-4 -8 -3 -5 -4 -0 -2 -41 -28 -20 -11 -5 -0 -0 -0 -0 -0 -0 -0 -0 -0 -0 -4 -2 -0 -0 -0 -0 -0 -16 -8 -0 -3 -0 -0 -0 -37 -40 -38 -0 -0 -0 -0
-12 -18 -21 -11 -8 -20 -55 -54 -20 -20 -17 -13 -7 -0 -0 -1 -6 -19 -104 -163 -107 -10 -0 -0 -0 -0 -1 -0 -0 -0 -4 -1 -0 -0 -0 -0 -0 -0 -0 -0 -62 -78 -65
-27 -29 -35 -23 -19 -17 -90 -73 -72 -1 -0 -0 -0 -0 -0 -0 -22 -3 -78 -179 -118 -102 -50 -0 -0 -0 -1 -3 -4 -4 -1 -0 -7 -9 -3 -2 -0 -0 -0 -1 -33 -45 -13
-58 -36 -29 -35 -29 -24 -100 -101 -80 -6 -0 -0 -0 -0 -0 -0 -0 -15 -16 -18 -12 -31 -47 -25 -7 -0 -1 -6 -7 -0 -6 -1 -1 -0 -11 -6 -1 -0 -0 -0 -31 -71 -26
-79 -61 -33 -15 -18 -4 -103 -99 -75 -4 -0 -0 -0 -0 -0 -0 -6 -14 -33 -3 -0 -2 -110 -130 -88 -73 -52 -23 -2 -0 -0 -0 -0 -1 -6 -0 -1 -4 -2 -2 -31 -29 -27
-56 -63 -37 -24 -46 -4 -59 -96 -79 -0 -0 -0 -0 -0 -22 -26 -30 -13 -33 -5 -0 -0 -11 -44 -42 -110 -110 -1 -1 -15 -1 -28 -0 -0 -0 -2 -0 -2 -0 -16 -21 -18 -27
Wind_Speed
6 5 4 5 6 6 7 7 5 5 6 6 3 3 3 5 8 2 4 6 7 8 9 9 8 11 15 8 14 13 13 11 12 11 11 11 15 14 11 10 10 10 10
5 5 5 5 5 6 7 8 8 5 6 2 7 2 4 3 5 7 1 1 7 6 7 8 10 8 11 9 11 14 18 15 13 13 12 9 13 12 11 11 8 9 9
4 5 5 7 3 2 6 8 6 5 6 7 6 2 7 5 10 8 4 2 4 7 6 8 7 8 9 8 10 12 13 21 14 13 12 10 12 14 13 12 12 9 9
3 3 2 3 3 2 4 5 6 9 9 7 nan 10 12 2 8 11 5 6 3 1 7 7 6 5 9 10 10 11 12 18 16 13 10 9 11 11 11 13 12 11 10
2 2 0 1 2 2 3 4 4 8 9 14 8 nan 12 nan 4 7 7 6 6 3 5 12 6 6 8 13 13 10 10 11 16 14 12 10 11 10 8 7 8 9 8
3 2 1 1 1 2 1 3 5 7 6 7 9 6 6 4 4 6 6 5 nan 6 6 4 6 6 4 11 11 8 3 7 18 15 13 11 10 9 9 6 5 6 6
3 4 4 3 1 2 3 3 3 2 3 7 6 6 6 7 7 4 11 9 9 7 10 4 4 1 7 6 6 6 5 5 15 16 18 13 10 9 10 7 6 4 5
4 6 5 6 4 3 5 6 7 7 4 5 5 1 4 5 9 3 nan 14 8 7 9 9 8 7 4 6 8 5 4 7 11 15 15 11 10 7 7 6 6 6 5
7 8 9 7 4 5 8 7 7 8 6 8 6 5 10 4 8 6 9 13 nan nan 7 7 9 10 9 5 9 8 5 6 7 12 14 11 9 7 4 4 4 4 5
7 8 7 7 6 5 7 7 6 5 8 11 10 6 10 9 9 9 10 13 11 nan nan 7 7 9 10 6 8 8 6 7 4 12 11 9 6 3 1 2 3 4 3
6 5 4 5 4 4 5 4 5 8 8 5 11 13 8 11 11 8 7 14 9 5 4 5 7 6 9 8 6 9 7 3 2 8 9 9 4 2 3 3 2 3 4
6 5 4 2 2 2 3 5 3 2 7 4 7 7 13 14 14 14 10 9 9 nan 9 2 5 6 6 6 9 11 8 10 4 3 6 9 6 3 3 3 2 2 3
8 8 7 5 7 4 3 4 5 4 7 8 6 7 11 12 14 15 13 9 10 13 11 nan 7 6 6 3 5 11 11 9 7 4 1 5 4 2 1 1 1 1 2
7 8 7 6 7 7 7 8 9 7 15 14 10 8 9 13 15 17 17 16 15 10 12 13 9 9 6 4 3 4 9 nan nan 4 2 2 3 4 4 3 2 2 2
4 4 6 8 10 11 10 14 23 25 31 25 3 6 10 12 13 14 17 20 23 14 12 14 16 12 8 5 2 2 4 5 nan nan nan 2 5 6 7 7 6 5 5
11 10 9 9 9 14 18 17 20 14 13 4 6 6 7 8 8 10 12 15 15 12 11 13 13 17 9 8 4 2 1 nan nan nan nan nan 5 6 6 8 8 6 6
14 13 11 10 12 19 13 12 17 21 18 14 11 7 6 7 5 6 10 9 7 9 8 nan 16 19 15 8 9 8 6 5 7 nan nan nan nan 7 7 8 8 7 6
18 17 15 13 13 14 13 15 15 13 12 11 8 8 7 7 6 7 11 9 9 10 10 11 17 14 14 13 16 8 13 11 10 12 nan nan nan nan nan nan 8 7 7
16 16 18 17 15 14 15 15 13 13 11 11 11 12 11 11 10 9 9 12 13 14 15 14 13 18 17 16 18 17 14 14 15 16 19 nan nan nan nan nan nan nan nan
13 15 16 15 15 15 18 19 19 17 12 9 9 9 10 9 9 9 10 11 12 15 17 19 20 22 19 20 20 26 23 21 20 20 16 18 nan nan nan nan nan nan nan
14 15 15 17 18 17 16 19 22 20 18 16 13 9 5 4 4 6 10 10 10 13 17 nan nan 22 24 28 24 28 28 33 27 21 22 21 21 20 19 nan nan nan nan
13 12 11 12 13 12 15 22 20 23 13 12 13 13 12 13 10 10 9 nan nan 11 14 18 19 22 21 24 26 32 23 20 29 25 25 22 28 25 23 23 22 nan nan
16 16 16 18 18 16 24 23 21 18 18 17 17 18 16 17 17 14 15 nan nan nan 10 13 15 21 21 22 nan nan 22 21 23 31 25 24 25 22 25 29 32 29 27
18 18 18 20 21 19 24 24 24 21 19 21 17 19 16 19 19 18 18 16 16 17 16 17 18 19 23 nan 20 19 nan nan 23 27 26 17 23 25 25 24 34 35 33
19 19 19 21 22 17 21 21 22 21 21 23 22 25 25 17 22 23 21 19 19 19 nan nan nan nan nan nan 29 24 15 23 26 30 nan 24 29 24 30 33 33 32 35
20 22 21 21 20 18 22 21 23 17 21 22 22 24 25 20 20 28 22 20 20 20 25 28 26 nan nan nan nan nan nan nan nan 32 29 26 30 36 30 nan nan nan nan
Wind_Direction
105 81 62 57 69 51 52 40 58 33 21 23 3 55 50 46 23 321 256 13 28 19 339 326 310 310 310 307 264 245 248 263 265 265 253 257 234 231 237 242 255 272 282
120 92 67 75 73 63 44 38 40 31 28 107 36 53 185 18 359 12 205 359 26 14 14 348 347 324 321 301 299 269 256 246 258 264 250 243 238 234 238 242 252 271 285
111 100 99 86 90 49 37 25 23 341 258 190 153 20 337 29 30 48 78 105 327 13 33 9 354 346 334 310 286 286 270 248 242 250 254 243 244 247 241 244 243 262 285
108 113 118 87 72 22 32 38 13 315 327 34 nan 358 9 325 55 22 72 60 13 343 350 6 344 1 14 342 312 297 276 263 234 242 251 250 243 251 248 238 245 251 268
59 110 130 45 24 19 10 340 332 338 341 359 49 nan 17 nan 14 354 12 39 31 29 353 325 331 314 321 331 325 307 270 282 238 237 245 249 254 239 249 231 238 254 260
80 80 107 28 314 292 291 332 356 346 39 347 360 32 359 342 326 318 314 98 nan 46 359 332 331 341 312 298 316 310 266 274 241 228 226 236 238 245 239 238 235 255 258
85 60 82 54 10 21 27 6 280 24 267 252 329 9 338 22 320 300 316 287 271 43 33 21 11 326 296 310 309 303 283 269 238 224 232 228 221 227 243 248 245 244 246
48 62 40 70 53 23 354 351 323 289 248 284 272 317 336 312 341 324 nan 308 323 254 28 11 21 23 8 296 339 321 299 266 242 214 211 210 222 207 239 249 254 246 251
36 42 44 44 22 18 2 346 336 338 280 259 283 271 293 304 326 266 318 321 nan nan 355 24 26 17 30 21 336 347 328 287 240 202 202 219 228 216 219 264 292 264 247
41 40 39 26 19 324 359 12 353 318 309 283 267 302 272 247 279 313 310 343 313 nan nan 5 30 28 29 30 20 12 324 4 232 201 199 212 224 219 189 310 315 336 321
7 15 14 356 352 334 349 341 308 332 320 275 267 265 291 281 276 294 295 321 302 312 328 9 357 27 30 42 64 42 21 357 180 198 198 204 214 114 83 79 43 5 3
310 338 352 346 303 295 323 324 325 348 312 290 262 265 276 283 297 286 290 322 291 nan 291 327 9 1 29 34 59 70 38 77 113 158 206 197 202 135 66 51 56 50 23
288 302 316 305 291 297 293 319 318 320 324 308 311 294 291 267 292 286 276 266 311 278 255 nan 324 341 353 21 67 56 68 72 69 69 184 208 220 228 75 352 341 49 42
287 302 312 322 325 318 314 298 279 262 246 259 284 300 297 288 311 283 270 273 275 277 268 261 276 307 327 335 47 17 85 nan nan 42 3 277 286 284 286 288 298 252 240
346 320 314 328 333 332 326 296 278 269 284 275 215 323 307 290 302 302 278 275 283 269 281 260 264 287 276 287 337 26 68 49 nan nan nan 315 295 290 292 290 280 275 267
359 345 339 336 337 326 331 346 356 290 282 231 65 11 337 316 319 302 303 305 281 260 282 276 276 264 254 248 279 306 181 nan nan nan nan nan 317 315 313 310 317 320 314
5 355 2 1 359 5 24 23 11 1 25 42 32 16 352 313 306 297 305 321 306 312 313 nan 289 273 251 267 251 265 247 232 226 nan nan nan nan 314 321 318 319 333 332
20 13 18 15 13 4 5 6 0 358 356 21 23 9 3 323 343 306 291 318 306 295 293 301 283 296 284 278 273 270 252 246 237 269 nan nan nan nan nan nan 298 299 283
29 30 40 28 19 8 351 353 352 354 354 0 354 352 2 9 346 313 298 278 280 280 276 272 282 280 270 264 269 259 251 248 238 247 271 nan nan nan nan nan nan nan nan
25 24 22 19 15 7 357 351 346 342 335 344 354 3 1 353 338 325 310 296 283 280 275 272 273 278 280 283 277 272 255 254 239 240 254 253 nan nan nan nan nan nan nan
22 29 33 15 14 5 6 357 350 334 332 333 334 328 328 330 298 285 286 291 288 287 282 nan nan 276 278 268 277 272 271 244 241 238 247 254 262 259 261 nan nan nan nan
9 4 356 349 349 351 334 338 351 360 321 324 330 323 316 306 310 299 298 nan nan 284 293 291 279 276 286 290 282 283 283 262 241 259 250 249 255 253 256 260 276 nan nan
348 352 353 354 351 340 322 338 340 355 7 355 336 310 295 289 292 286 292 nan nan nan 293 280 293 281 281 274 nan nan 291 252 239 241 258 263 263 245 252 258 267 279 278
337 339 342 341 343 346 330 340 337 350 337 350 350 339 304 277 278 279 276 273 272 278 294 285 285 288 278 nan 277 279 nan nan 238 239 250 250 265 249 242 248 261 267 270
325 332 332 334 338 347 341 341 340 345 343 351 353 351 357 321 274 283 283 279 273 274 nan nan nan nan nan nan 277 265 264 262 246 255 nan 252 273 265 256 254 256 264 264
324 319 322 329 334 338 331 341 340 337 336 340 346 352 337 348 303 293 286 280 282 282 280 279 280 nan nan nan nan nan nan nan nan 267 259 270 274 266 255 nan nan nan nan